weather.gov     
National Weather Service

Regional Weather Roundup
NWS Homepage
This page is being discontinued on March 12, 2014.
The same data is available at this site. Please update your bookmarks.
Thank you, and we apologize for the inconvenience.
Please send an email to SR-SRH.Webmaster@noaa.gov with any concerns.


Current Version
Previous Version:    01  02  03  04  05  06  07  08  09  10  11  12  13  14  15  16  17  18  19  20  21  22  23  24  25  26  
[Printable]
709
ASUS41 KALY 010110
RWRALY

NEW YORK STATE HOURLY WEATHER ROUNDUP
NATIONAL WEATHER SERVICE ALBANY NY
900 PM EDT THU JUL 31 2014

NOTE: "FAIR" INDICATES FEW OR NO CLOUDS BELOW 12,000 FEET WITH NO
SIGNIFICANT WEATHER AND/OR NO OBSTRUCTIONS TO VISIBILITY.

NYZ032-033-038>043-046>054-057>066-NYZ062>081-010200-
EAST


CITY           SKY/WX    TMP DP  RH WIND       PRES   REMARKS
ALBANY         FAIR      69  64  84 CALM      30.10R
GLENS FALLS    CLOUDY    68  62  81 CALM      30.09R
POUGHKEEPSIE   FAIR      74  63  68 S3        30.10R
NEWBURGH       PTCLDY    75  61  60 VRB5      30.12R
MONTGOMERY     MOCLDY    69  61  75 CALM      30.11R
WHITE PLAINS   MOCLDY    71  64  78 SE5       30.13R
ISLIP          FAIR      74  65  73 S9        30.13R
NEW YORK CITY  MOCLDY    75  65  70 S10       30.12R
CENTRAL PARK   FAIR      75  64  68 CALM      30.15R
$$

NYZ005>009-017-018-044>046-055-056-010200-
CENTRAL


CITY           SKY/WX    TMP DP  RH WIND       PRES   REMARKS
FULTON         FAIR      63  60  90 SE3       30.08R
SYRACUSE       FAIR      64  60  87 E3        30.09R
ROME           FAIR      61  59  93 CALM      30.12R
ELMIRA         FAIR      64  57  78 CALM      30.09R
BINGHAMTON     FAIR      66  57  72 S6        30.13R
MONTICELLO     FAIR      66  59  77 CALM      30.16R
$$

NYZ026>034-041>043-010200-
NORTH


CITY           SKY/WX    TMP DP  RH WIND       PRES   REMARKS
WATERTOWN      FAIR      65  54  67 S5        30.06R
FORT DRUM      NOT AVBL
MASSENA        FAIR      62  56  80 CALM      30.04R
SARANAC LAKE   FAIR      55  54  96 CALM      30.09R
PLATTSBURGH    FAIR      61  60  97 CALM      30.06R
$$

NYZ001>004-010>016-019>021-010200-
WEST


CITY           SKY/WX    TMP DP  RH WIND       PRES   REMARKS
NIAGARA FALLS  FAIR      66  54  65 SW8       30.06R
BUFFALO        FAIR      68  54  60 SW10      30.07R
DUNKIRK        FAIR      62  53  72 S3        30.08S
JAMESTOWN      FAIR      57  54  88 SW3       30.12S
WELLSVILLE     FAIR      65  51  60 W5        30.15R
ROCHESTER      FAIR      67  50  54 S5        30.08R
PENN YAN       CLOUDY    68  61  78 W5        30.09S
$$

             KEY
       WCI = WIND CHILL INDEX
       VSB = VISIBILITY
       HX  = HEAT INDEX
$$




U.S. Dept. of Commerce
NOAA National Weather Service
1325 East West Highway
Silver Spring, MD 20910
E-mail: w-nws.webmaster@noaa.gov
Page last modified: May 16, 2007
NATIONAL WEATHER SERVICE: for Safety, for Work, for Fun - FOR LIFE